Date,TemperatureHighF,TemperatureAvgF,TemperatureLowF,DewpointHighF,DewpointAvgF,DewpointLowF,HumidityHigh,HumidityAvg,HumidityLow,PressureMaxIn,PressureMinIn,WindSpeedMaxMPH,WindSpeedAvgMPH,GustSpeedMaxMPH,PrecipitationSumIn
2013-1-1,47,36,26,26,18,6,100,56,23,0.00,40.00,18,6,34,0.00
2013-1-2,60,42,27,30,12,3,76,34,12,0.00,40.00,16,7,36,0.00
2013-1-3,67,40,26,21,16,7,77,44,13,0.00,40.00,5,1,11,0.00
2013-1-4,68,40,23,18,13,6,62,40,10,0.00,40.00,6,1,12,0.00
2013-1-5,65,43,29,28,18,3,64,41,16,0.00,40.00,12,3,25,0.00
2013-1-6,47,38,32,38,34,14,100,87,30,0.00,40.00,10,3,25,0.09
2013-1-7,49,36,30,38,34,30,100,94,62,0.00,40.00,8,2,19,0.06
2013-1-8,72,44,29,41,32,29,100,72,25,0.00,40.00,7,1,15,0.00
2013-1-9,66,53,41,39,29,20,67,42,26,0.00,40.00,8,3,27,0.00
2013-1-10,41,34,30,40,31,22,100,89,63,0.00,40.00,8,3,19,0.00
2013-1-11,38,31,25,29,25,20,98,79,56,0.00,40.00,8,2,24,0.05
2013-1-12,43,29,20,26,22,16,100,77,48,0.00,40.00,5,2,13,0.01
2013-1-13,46,28,15,25,18,13,92,71,32,0.00,40.00,6,1,16,0.00
2013-1-14,48,30,18,15,6,2,76,38,16,0.00,40.00,10,3,21,0.00
2013-1-15,63,37,23,19,13,7,63,40,16,0.00,40.00,8,2,18,0.00
2013-1-16,72,47,29,26,22,14,72,42,17,0.00,40.00,7,2,14,0.00
2013-1-17,65,51,41,11,3,-5,28,16,6,0.00,40.00,17,8,31,0.00
2013-1-18,68,50,39,13,8,4,28,19,9,0.00,40.00,10,5,18,0.00
2013-1-19,66,50,41,9,3,-8,21,16,5,0.00,40.00,13,6,23,0.00
2013-1-20,68,51,37,6,-1,-16,23,13,4,0.00,40.00,13,6,22,0.00
2013-1-21,69,52,39,2,-4,-20,20,12,3,0.00,40.00,12,5,26,0.00
2013-1-22,72,53,40,7,0,-13,16,12,3,0.00,40.00,10,3,19,0.00
2013-1-23,70,57,46,44,24,1,94,31,12,0.00,40.00,9,4,29,0.05
2013-1-24,63,52,46,56,50,44,100,93,70,0.00,40.00,5,2,17,0.48
2013-1-25,53,49,45,50,48,45,100,97,80,0.00,40.00,7,2,16,0.15
2013-1-26,57,47,39,52,46,38,100,96,74,0.00,40.00,5,1,11,0.26
2013-1-27,47,37,33,39,32,26,100,84,61,0.00,40.00,8,4,23,0.01
2013-1-28,44,34,30,33,27,24,98,76,55,0.00,40.00,9,5,24,0.00
2013-1-29,53,39,31,32,28,25,90,67,39,0.00,40.00,7,2,15,0.00
2013-1-30,68,46,29,39,32,26,98,64,28,0.00,40.00,10,2,18,0.00
2013-1-31,74,52,31,38,32,28,97,52,22,0.00,40.00,6,2,16,0.00
2013-2-1,75,49,33,38,31,26,89,57,16,0.00,40.00,11,2,18,0.00
2013-2-2,68,52,39,37,32,27,72,50,21,0.00,40.00,8,1,24,0.00
2013-2-3,70,50,34,38,32,24,91,54,23,0.00,40.00,6,2,14,0.00
2013-2-4,74,48,30,35,29,25,88,53,23,0.00,40.00,7,2,17,0.00
2013-2-5,74,48,32,43,30,24,95,57,18,0.00,40.00,7,1,17,0.00
2013-2-6,60,45,30,42,32,19,99,64,34,0.00,40.00,6,2,13,0.00
2013-2-7,64,39,27,38,22,-4,94,57,7,0.00,40.00,10,2,20,0.00
2013-2-8,41,33,30,34,31,28,100,93,64,0.00,40.00,9,2,18,0.05
2013-2-9,50,36,26,32,28,22,100,76,38,0.00,40.00,6,2,14,0.06
2013-2-10,55,36,20,29,24,19,97,67,33,0.00,40.00,7,2,14,0.01
2013-2-11,58,37,22,27,23,20,95,63,26,0.00,40.00,7,2,15,0.01
2013-2-12,64,40,24,27,22,16,88,57,20,0.00,40.00,7,1,14,0.00
2013-2-13,68,41,24,33,27,22,94,62,22,0.00,40.00,8,2,17,0.00
2013-2-14,67,47,30,33,23,17,78,46,16,0.00,40.00,18,4,25,0.00
2013-2-15,65,54,38,26,18,11,57,27,14,0.00,40.00,17,8,34,0.00
2013-2-16,70,54,35,20,13,6,41,22,10,0.00,40.00,10,4,25,0.00
2013-2-17,67,45,29,27,20,14,68,40,17,0.00,40.00,6,2,16,0.00
2013-2-18,66,44,26,38,27,16,100,58,21,0.00,40.00,14,3,21,0.00
2013-2-19,49,37,28,34,29,23,100,77,43,0.00,40.00,13,4,25,0.00
2013-2-20,40,32,27,33,27,24,100,82,58,0.00,40.00,9,3,20,0.07
2013-2-21,50,36,22,32,27,22,98,72,40,0.00,40.00,7,2,25,0.01
2013-2-22,63,40,23,29,26,22,100,64,25,0.00,40.00,7,2,18,0.00
2013-2-23,61,41,29,34,27,22,83,61,33,0.00,40.00,11,4,24,0.00
2013-2-24,61,38,22,23,20,15,86,52,22,0.00,40.00,7,2,15,0.00
2013-2-25,71,44,26,24,18,12,72,41,14,0.00,40.00,7,2,17,0.00
2013-2-26,66,43,27,33,22,15,87,47,16,0.00,40.00,5,2,14,0.00
2013-2-27,70,46,25,18,12,6,58,30,9,0.00,40.00,8,2,18,0.00
2013-2-28,70,47,29,28,18,6,63,35,19,0.00,40.00,7,2,15,0.00
2013-3-1,80,50,30,35,24,16,73,44,12,0.00,40.00,15,3,26,0.00
2013-3-2,76,56,39,24,19,17,42,25,13,0.00,40.00,10,2,23,0.00
2013-3-3,65,54,45,39,28,18,72,38,25,0.00,40.00,15,3,27,0.00
2013-3-4,72,51,36,42,38,35,98,65,31,0.00,40.00,7,2,16,0.00
2013-3-5,65,50,37,37,29,20,89,51,22,0.00,40.00,12,5,31,0.00
2013-3-6,51,40,32,43,34,26,95,80,62,0.00,40.00,9,4,31,0.01
2013-3-7,50,39,30,36,31,28,100,76,44,0.00,40.00,10,3,24,0.01
2013-3-8,43,37,33,39,35,33,100,95,78,0.00,40.00,5,1,15,0.55
2013-3-9,48,37,31,43,35,31,100,92,76,0.00,40.00,9,2,18,0.01
2013-3-10,70,48,28,40,33,19,100,65,16,0.00,40.00,7,2,16,0.00
2013-3-11,78,50,29,37,31,23,96,58,14,0.00,40.00,7,2,17,0.00
2013-3-12,81,55,32,35,31,21,83,50,11,0.00,40.00,9,2,19,0.00
2013-3-13,87,60,38,38,31,24,72,42,11,0.00,40.00,8,2,21,0.00
2013-3-14,84,62,40,39,33,26,68,40,12,0.00,40.00,13,3,20,0.00
2013-3-15,84,60,41,46,37,31,67,46,23,0.00,40.00,7,2,17,0.00
2013-3-16,78,56,38,41,36,32,81,53,22,0.00,40.00,7,3,17,0.00
2013-3-17,74,56,42,37,32,24,63,43,21,0.00,40.00,7,3,19,0.00
2013-3-18,75,51,33,31,23,14,79,40,15,0.00,40.00,6,1,15,0.00
2013-3-19,76,57,38,37,30,21,63,38,22,0.00,40.00,7,2,17,0.00
2013-3-20,76,55,41,41,36,31,76,52,20,0.00,40.00,7,2,16,0.00
2013-3-21,69,53,44,45,41,37,91,66,37,0.00,40.00,8,4,19,0.00
2013-3-22,71,47,30,38,27,11,92,54,17,0.00,40.00,10,3,22,0.00
2013-3-23,77,50,27,23,13,-3,58,27,8,0.00,40.00,7,2,15,0.00
2013-3-24,78,52,32,31,16,-4,46,25,7,0.00,40.00,7,2,17,0.00
2013-3-25,82,54,33,30,24,19,56,36,10,0.00,40.00,7,2,18,0.00
2013-3-26,80,53,35,31,28,19,81,45,11,0.00,40.00,6,2,17,0.00
2013-3-27,78,51,37,41,33,28,79,55,26,0.00,40.00,7,1,14,0.00
2013-3-28,75,63,46,43,39,35,77,45,26,0.00,40.00,7,3,17,0.00
2013-3-29,73,56,35,39,34,28,99,53,23,0.00,40.00,14,4,28,0.00
2013-3-30,72,60,46,41,30,-100,47,35,15,0.00,40.00,15,4,27,0.00
2013-3-31,63,52,41,52,42,32,89,72,43,0.00,40.00,10,3,20,0.02
2013-4-1,73,47,32,44,37,32,100,74,29,0.00,40.00,6,2,18,0.01
2013-4-2,74,54,43,45,42,36,100,70,31,0.00,40.00,7,2,19,0.00
2013-4-3,81,57,34,43,34,26,94,51,18,0.00,40.00,11,3,26,0.00
2013-4-4,78,56,44,47,35,23,81,46,34,0.00,40.00,7,2,18,0.00
2013-4-5,70,55,48,49,45,39,99,71,40,0.00,40.00,9,3,20,0.00
2013-4-6,75,55,44,45,41,33,100,63,27,0.00,40.00,8,4,19,0.00
2013-4-7,70,54,44,45,38,32,84,59,32,0.00,40.00,10,5,29,0.00
2013-4-8,48,43,37,40,32,25,87,66,46,0.00,40.00,16,9,38,0.00
2013-4-9,59,48,36,27,21,13,69,38,17,0.00,40.00,13,6,34,0.00
2013-4-10,81,56,32,27,22,17,60,32,12,0.00,40.00,9,3,20,0.00
2013-4-11,82,59,43,43,37,28,73,47,23,0.00,40.00,8,3,20,0.00
2013-4-12,88,59,37,43,39,35,96,55,17,0.00,40.00,7,2,17,0.00
2013-4-13,84,58,40,41,36,31,80,49,15,0.00,40.00,7,2,18,0.00
2013-4-14,77,56,42,46,36,31,82,52,23,0.00,40.00,8,2,22,0.00
2013-4-15,72,50,37,37,32,22,78,54,17,0.00,40.00,10,2,21,0.00
2013-4-16,56,42,29,32,24,13,83,53,20,0.00,40.00,12,6,29,0.00
2013-4-17,59,46,32,21,15,10,52,30,16,0.00,40.00,11,5,24,0.00
2013-4-18,78,46,28,17,13,5,54,30,7,0.00,40.00,8,1,17,0.00
2013-4-19,83,54,32,23,17,11,43,26,9,0.00,40.00,9,2,20,0.00
2013-4-20,87,64,40,40,31,22,53,32,15,0.00,40.00,7,3,17,0.00
2013-4-21,93,59,39,33,22,-5,45,30,3,0.00,40.00,7,2,18,0.00
2013-4-22,90,63,42,34,27,19,40,28,10,0.00,40.00,7,2,24,0.00
2013-4-23,91,65,48,35,30,25,53,31,12,0.00,40.00,12,4,21,0.00
2013-4-24,79,56,43,46,32,25,83,45,16,0.00,40.00,17,2,30,0.00
2013-4-25,83,55,38,46,42,38,100,67,24,0.00,40.00,8,2,19,0.00
2013-4-26,86,64,39,44,39,33,96,47,15,0.00,40.00,7,2,18,0.00
2013-4-27,93,66,43,40,35,31,66,37,13,0.00,40.00,8,2,18,0.00
2013-4-28,95,68,46,41,33,29,59,32,11,0.00,40.00,8,2,17,0.00
2013-4-29,93,66,44,41,31,25,50,30,13,0.00,40.00,8,2,19,0.00
2013-4-30,92,68,49,42,37,32,60,35,17,0.00,40.00,9,3,19,0.00
2013-5-1,82,66,45,32,16,-4,42,19,6,0.00,40.00,16,6,31,0.00
2013-5-2,92,69,52,6,-9,-25,9,4,2,0.00,40.00,21,9,32,0.00
2013-5-3,95,65,41,27,13,-10,27,15,7,0.00,40.00,10,2,19,0.00
2013-5-4,83,62,44,32,25,15,41,26,15,0.00,40.00,17,5,32,0.00
2013-5-5,62,52,44,39,35,16,67,52,28,0.00,40.00,11,4,28,0.00
2013-5-6,59,50,44,46,41,36,100,73,57,0.00,40.00,13,6,27,0.09
2013-5-7,70,50,37,43,38,34,93,66,36,0.00,40.00,14,3,21,0.01
2013-5-8,70,53,40,46,42,38,98,69,38,0.00,40.00,8,3,20,0.00
2013-5-9,75,59,43,48,44,41,98,63,33,0.00,40.00,8,2,21,0.00
2013-5-10,89,66,46,50,42,-100,85,49,24,0.00,40.00,10,4,26,0.00
2013-5-11,90,68,49,48,40,-100,81,43,17,0.00,40.00,11,3,23,0.00
2013-5-12,96,73,51,52,42,38,73,38,15,0.00,40.00,6,2,23,0.00
2013-5-13,95,74,51,45,36,27,63,30,12,0.00,40.00,14,4,32,0.00
2013-5-14,92,68,50,35,27,16,34,24,8,0.00,40.00,14,2,29,0.00
2013-5-15,92,64,45,42,34,27,63,36,15,0.00,40.00,7,2,25,0.00
2013-5-16,78,55,42,40,23,-100,65,42,24,0.00,40.00,8,2,24,0.00
2013-5-17,80,60,48,45,38,-100,76,50,24,0.00,40.00,7,3,19,0.00
2013-5-18,83,62,47,37,31,23,62,35,13,0.00,40.00,9,4,20,0.00
2013-5-19,83,64,49,42,34,23,58,34,17,0.00,40.00,11,5,24,0.00
2013-5-20,95,66,43,36,32,26,66,33,11,0.00,40.00,7,2,19,0.00
2013-5-21,96,65,46,39,30,25,45,30,11,0.00,40.00,7,2,22,0.00
2013-5-22,78,57,42,36,28,20,54,35,15,0.00,40.00,8,3,18,0.00
2013-5-23,78,50,32,22,17,12,46,29,9,0.00,40.00,9,2,20,0.00
2013-5-24,85,54,33,34,26,18,56,35,16,0.00,40.00,6,2,17,0.00
2013-5-25,85,56,36,32,29,13,68,41,8,0.00,40.00,7,2,21,0.00
2013-5-26,80,59,41,40,32,24,59,39,19,0.00,40.00,8,3,17,0.00
2013-5-27,78,61,48,46,37,24,72,45,17,0.00,40.00,12,5,24,0.00
2013-5-28,76,60,47,51,46,42,92,62,32,0.00,40.00,14,6,29,0.00
2013-5-29,85,67,48,50,45,39,92,49,25,0.00,40.00,10,5,21,0.00
2013-5-30,89,67,42,43,35,25,76,37,13,0.00,40.00,8,3,17,0.00
2013-5-31,91,71,47,39,35,29,58,30,15,0.00,40.00,7,3,22,0.00
2013-6-1,102,72,47,44,35,27,48,29,12,0.00,40.00,9,2,23,0.00
2013-6-2,93,74,54,45,37,32,44,29,13,0.00,40.00,14,4,27,0.00
2013-6-3,90,68,52,47,38,34,53,36,15,0.00,40.00,15,4,28,0.00
2013-6-4,98,68,50,53,46,42,74,50,20,0.00,40.00,7,1,17,0.00
2013-6-5,98,71,50,54,49,44,86,51,22,0.00,40.00,8,2,20,0.00
2013-6-6,99,74,52,55,50,46,80,48,22,0.00,40.00,8,2,20,0.00
2013-6-7,104,77,55,56,48,23,75,43,7,0.00,40.00,8,2,22,0.00
2013-6-8,111,80,58,53,40,9,55,30,6,0.00,40.00,15,2,25,0.00
2013-6-9,91,78,57,28,16,3,21,11,4,0.00,40.00,10,3,27,0.00
2013-6-10,90,72,51,47,35,5,59,29,8,0.00,40.00,9,3,20,0.00
2013-6-11,97,74,50,44,40,33,69,35,12,0.00,40.00,16,4,28,0.00
2013-6-12,91,73,54,48,40,31,54,33,13,0.00,40.00,13,4,27,0.00
2013-6-13,90,66,48,37,30,16,52,29,9,0.00,40.00,9,3,19,0.00
2013-6-14,90,66,44,36,29,19,43,27,15,0.00,40.00,8,2,18,0.00
2013-6-15,94,62,45,38,29,24,50,32,9,0.00,40.00,7,1,19,0.00
2013-6-16,87,69,46,33,28,22,39,24,12,0.00,40.00,9,4,20,0.00
2013-6-17,93,72,57,37,32,27,40,24,12,0.00,40.00,9,4,22,0.00
2013-6-18,92,67,46,43,36,29,54,34,12,0.00,40.00,8,2,19,0.00
2013-6-19,82,63,47,42,30,18,63,35,11,0.00,40.00,8,4,20,0.00
2013-6-20,84,61,48,37,32,26,55,37,13,0.00,40.00,7,3,17,0.00
2013-6-21,88,83,78,34,32,30,17,16,14,0.00,40.00,7,7,19,0.00
2013-6-22,93,77,54,37,33,26,44,21,12,0.00,40.00,7,4,20,0.00
2013-6-23,85,64,50,46,36,26,63,36,21,0.00,40.00,5,2,17,0.00
2013-6-24,75,58,46,52,45,39,77,63,37,0.00,40.00,7,1,16,0.00
2013-6-25,89,63,48,53,48,44,86,62,28,0.00,40.00,7,1,16,0.00
2013-6-26,93,72,55,59,53,48,83,54,29,0.00,40.00,6,2,16,0.00
2013-6-27,99,74,57,58,52,44,79,50,25,0.00,40.00,7,2,16,0.00
2013-6-28,104,82,60,58,51,44,63,37,22,0.00,40.00,8,3,18,0.00
2013-6-29,107,89,63,54,48,41,50,26,17,0.00,40.00,9,3,19,0.00
2013-6-30,106,82,61,53,46,38,44,30,16,0.00,40.00,6,2,19,0.00
2013-7-1,102,78,64,53,49,45,53,37,18,0.00,40.00,10,2,24,0.00
2013-7-2,101,83,64,51,46,42,55,31,16,0.00,40.00,18,5,30,0.00
2013-7-3,104,82,64,50,47,43,47,31,16,0.00,40.00,7,2,17,0.00
2013-7-4,103,82,64,55,48,43,47,33,19,0.00,40.00,13,2,20,0.00
2013-7-5,96,81,63,55,49,43,58,35,23,0.00,40.00,14,4,23,0.00
2013-7-6,97,76,59,43,37,29,38,26,13,0.00,40.00,16,4,28,0.00
2013-7-7,99,79,56,37,32,27,34,19,11,0.00,40.00,16,5,28,0.00
2013-7-8,101,76,57,36,32,28,36,22,9,0.00,40.00,15,3,30,0.00
2013-7-9,99,81,55,42,35,29,36,21,11,0.00,40.00,16,4,30,0.00
2013-7-10,95,80,62,40,31,-100,30,19,13,0.00,40.00,6,2,15,0.00
2013-7-11,88,78,67,51,42,29,50,29,20,0.00,40.00,15,5,23,0.00
2013-7-12,95,70,51,52,45,36,65,44,13,0.00,40.00,12,3,20,0.00
2013-7-13,98,75,55,44,36,20,60,30,10,0.00,40.00,9,3,21,0.00
2013-7-14,100,81,54,31,27,23,32,16,8,0.00,40.00,7,3,19,0.00
2013-7-15,90,74,55,30,24,19,31,17,8,0.00,40.00,16,5,29,0.00
2013-7-16,87,78,65,35,29,21,23,18,9,0.00,40.00,6,3,15,0.00
2013-7-17,96,71,50,34,29,24,51,25,8,0.00,40.00,6,2,16,0.00
2013-7-18,98,81,52,41,33,28,51,20,9,0.00,40.00,7,3,19,0.00
2013-7-19,101,74,53,35,30,27,37,23,10,0.00,40.00,6,2,17,0.00
2013-7-20,103,75,59,45,34,-100,38,25,9,0.00,40.00,13,2,27,0.00
2013-7-21,93,78,65,62,45,37,52,32,22,0.00,40.00,16,5,24,0.01
2013-7-22,87,71,62,66,59,44,96,68,35,0.00,40.00,7,1,17,0.31
2013-7-23,96,74,59,58,52,44,82,51,22,0.00,40.00,7,2,18,0.20
2013-7-24,100,77,56,54,48,39,79,42,14,0.00,40.00,7,2,18,0.00
2013-7-25,101,76,59,48,46,42,64,39,14,0.00,40.00,7,2,13,0.00
2013-7-26,94,72,59,49,46,41,64,42,16,0.00,40.00,5,1,17,0.00
2013-7-27,97,78,62,49,46,43,54,35,17,0.00,40.00,11,3,20,0.00
2013-7-28,93,77,58,48,44,38,63,36,16,0.00,40.00,14,4,26,0.00
2013-7-29,89,68,55,46,43,26,65,45,11,0.00,40.00,12,1,23,0.00
2013-7-30,94,74,54,40,37,31,54,30,11,0.00,40.00,14,3,28,0.00
2013-7-31,97,68,49,40,38,30,64,37,11,0.00,40.00,7,2,17,0.00
2013-8-1,90,72,51,41,32,26,65,28,12,0.00,40.00,7,2,20,0.00
2013-8-2,83,59,47,35,29,24,49,34,13,0.00,40.00,6,1,10,0.00
2013-8-3,93,64,49,35,27,20,36,26,9,0.00,40.00,7,1,20,0.00
2013-8-4,97,68,49,33,29,19,48,28,7,0.00,40.00,14,2,23,0.00
2013-8-5,92,68,50,37,30,22,46,27,8,0.00,40.00,10,2,17,0.00
2013-8-6,89,64,52,40,34,20,53,36,8,0.00,40.00,12,1,26,0.00
2013-8-7,90,64,49,43,35,31,55,37,14,0.00,40.00,6,1,16,0.00
2013-8-8,82,62,46,48,41,37,75,49,20,0.00,40.00,4,1,14,0.00
2013-8-9,87,64,48,46,40,30,66,44,13,0.00,40.00,7,2,17,0.00
2013-8-10,88,67,49,46,41,35,73,43,17,0.00,40.00,6,1,15,0.00
2013-8-11,88,65,49,50,42,36,71,47,16,0.00,40.00,6,2,16,0.00
2013-8-12,95,68,50,44,40,32,69,41,11,0.00,40.00,8,2,17,0.00
2013-8-13,99,73,49,40,33,-100,61,30,9,0.00,40.00,8,2,16,0.00
2013-8-14,101,74,51,34,26,13,47,22,5,0.00,40.00,8,2,19,0.00
2013-8-15,102,68,50,33,14,-100,37,17,6,0.00,40.00,6,2,20,0.00
2013-8-16,100,75,59,40,33,-100,39,24,11,0.00,40.00,8,2,16,0.00
2013-8-17,99,73,57,44,38,-100,49,31,14,0.00,40.00,7,2,20,0.00
2013-8-18,98,70,55,43,37,20,56,35,6,0.00,40.00,4,1,18,0.00
2013-8-19,95,78,68,52,36,-100,41,27,16,0.00,40.00,15,5,26,0.00
2013-8-20,93,78,55,43,28,-100,51,21,7,0.00,40.00,10,3,24,0.00
2013-8-21,92,82,65,28,22,-2,23,12,3,0.00,40.00,12,5,26,0.00
2013-8-22,93,83,65,28,20,10,21,10,6,0.00,40.00,12,6,25,0.00
2013-8-23,90,66,52,42,24,14,40,22,6,0.00,40.00,11,1,16,0.00
2013-8-24,96,69,51,42,37,-100,61,37,12,0.00,40.00,7,2,17,0.00
2013-8-25,93,70,49,44,35,22,60,34,8,0.00,40.00,9,2,20,0.00
2013-8-26,90,71,50,43,36,19,48,30,10,0.00,40.00,14,4,25,0.00
2013-8-27,85,66,56,55,46,42,64,50,30,0.00,40.00,8,1,19,0.00
2013-8-28,91,82,68,52,42,37,39,25,15,0.00,40.00,10,5,24,0.00
2013-8-29,96,74,55,46,42,39,59,36,15,0.00,40.00,8,2,18,0.00
2013-8-30,93,72,58,60,51,46,73,51,22,0.00,40.00,11,2,18,0.00
2013-8-31,89,74,62,62,55,-100,74,55,34,0.00,40.00,15,5,25,0.00
2013-9-1,87,76,64,60,57,54,77,55,33,0.00,40.00,11,4,21,0.00
2013-9-2,91,76,59,57,51,46,82,48,23,0.00,40.00,13,3,23,0.00
2013-9-3,93,75,60,54,50,44,72,46,20,0.00,40.00,12,3,24,0.00
2013-9-4,96,75,57,52,47,40,80,45,15,0.00,40.00,12,2,22,0.00
2013-9-5,97,77,57,47,44,38,66,36,13,0.00,40.00,9,3,22,0.00
2013-9-6,97,77,53,46,40,28,72,33,10,0.00,40.00,16,4,23,0.00
2013-9-7,99,73,56,41,31,-100,48,25,9,0.00,40.00,12,3,21,0.00
2013-9-8,96,75,57,37,33,28,40,24,11,0.00,40.00,6,2,17,0.00
2013-9-9,97,74,57,44,36,27,52,28,11,0.00,40.00,9,2,20,0.00
2013-9-10,90,69,57,39,31,25,39,26,13,0.00,40.00,15,2,24,0.00
2013-9-11,86,64,52,42,39,37,58,43,19,0.00,40.00,5,1,14,0.00
2013-9-12,93,67,47,42,37,26,67,39,9,0.00,40.00,7,1,17,0.00
2013-9-13,97,72,51,46,38,33,51,32,14,0.00,40.00,8,2,19,0.00
2013-9-14,99,74,53,50,44,-100,71,39,16,0.00,40.00,9,2,19,0.00
2013-9-15,92,76,55,49,37,26,70,33,10,0.00,40.00,14,5,28,0.00
2013-9-16,90,72,50,41,30,21,65,28,9,0.00,40.00,13,4,36,0.00
2013-9-17,90,68,44,45,39,26,62,38,16,0.00,40.00,8,2,21,0.00
2013-9-18,61,54,43,43,40,37,78,61,46,0.00,40.00,3,0,14,0.00
2013-9-19,95,74,42,40,34,30,82,29,10,0.00,40.00,8,4,19,0.00
2013-9-20,85,60,50,38,31,25,47,36,11,0.00,40.00,9,1,21,0.00
2013-9-21,73,58,44,47,36,-100,82,48,24,0.00,40.00,16,4,28,0.00
2013-9-22,71,57,44,47,40,33,97,59,26,0.00,40.00,8,4,21,0.00
2013-9-23,87,62,39,41,38,34,84,48,19,0.00,40.00,6,3,14,0.00
2013-9-24,90,67,45,36,30,24,63,32,10,0.00,40.00,11,2,21,0.00
2013-9-25,76,58,42,43,37,34,81,50,23,0.00,40.00,7,2,16,0.00
2013-9-26,63,50,41,38,31,18,81,52,20,0.00,40.00,10,4,24,0.00
2013-9-27,78,58,33,29,25,22,70,33,13,0.00,40.00,7,3,17,0.00
2013-9-28,83,54,34,28,19,-100,63,33,8,0.00,40.00,6,1,14,0.00
2013-9-29,91,68,43,27,21,15,39,20,8,0.00,40.00,7,2,16,0.00
2013-9-30,88,66,43,35,29,26,59,30,12,0.00,40.00,7,2,18,0.00
2013-10-1,76,65,53,48,48,45,74,56,36,0.00,40.00,5,2,14,0.00
2013-10-2,82,58,44,49,42,35,96,62,20,0.00,40.00,6,1,15,0.00
2013-10-3,73,57,44,40,33,25,68,44,20,0.00,40.00,7,2,16,0.00
2013-10-4,70,60,38,27,10,2,63,20,7,0.00,40.00,22,10,40,0.00
2013-10-5,76,65,58,10,6,1,14,10,6,0.00,40.00,22,13,43,0.00
2013-10-6,86,67,52,11,5,-4,19,9,3,0.00,40.00,11,4,25,0.00
2013-10-7,81,62,44,20,10,-2,30,15,4,0.00,40.00,13,4,23,0.00
2013-10-8,77,56,39,43,24,17,62,33,12,0.00,40.00,13,3,21,0.00
2013-10-9,53,45,34,38,34,27,88,65,43,0.00,40.00,19,6,37,0.00
2013-10-10,70,46,32,37,31,27,97,62,21,0.00,40.00,6,1,16,0.00
2013-10-11,75,47,32,34,32,29,91,61,19,0.00,40.00,7,1,17,0.00
2013-10-12,78,50,36,38,30,-100,79,53,16,0.00,40.00,6,1,17,0.00
2013-10-13,72,50,35,36,32,24,87,56,18,0.00,40.00,7,2,15,0.00
2013-10-14,81,51,32,35,30,21,91,53,14,0.00,40.00,7,2,14,0.00
2013-10-15,82,53,34,33,27,16,82,45,9,0.00,40.00,7,2,15,0.00
2013-10-16,79,58,45,23,16,12,35,22,8,0.00,40.00,7,3,17,0.00
2013-10-17,81,56,35,26,22,17,55,31,11,0.00,40.00,7,2,16,0.00
2013-10-18,86,60,37,24,20,11,54,28,6,0.00,40.00,9,2,24,0.00
2013-10-19,90,58,40,22,14,-100,41,23,4,0.00,40.00,6,2,15,0.00
2013-10-20,87,56,38,20,15,8,39,24,5,0.00,40.00,6,1,13,0.00
2013-10-21,80,54,36,19,14,7,38,25,6,0.00,40.00,8,1,19,0.00
2013-10-22,82,59,42,18,14,3,30,19,5,0.00,40.00,10,3,22,0.00
2013-10-23,79,58,42,37,20,9,50,26,7,0.00,40.00,11,3,26,0.00
2013-10-24,85,60,40,31,20,13,55,28,8,0.00,40.00,8,2,19,0.00
2013-10-25,86,61,40,23,18,12,49,23,7,0.00,40.00,7,2,17,0.00
2013-10-26,81,59,40,17,12,-100,32,19,7,0.00,40.00,10,2,25,0.00
2013-10-27,77,59,40,30,19,13,38,23,10,0.00,40.00,15,4,25,0.00
2013-10-28,56,46,38,38,33,25,80,63,36,0.00,40.00,14,5,24,0.00
2013-10-29,63,46,35,40,35,31,95,67,33,0.00,40.00,6,2,17,0.00
2013-10-30,66,47,33,38,33,29,93,64,28,0.00,40.00,6,2,14,0.00
2013-10-31,76,53,30,31,26,18,100,45,14,0.00,40.00,8,2,16,0.00
2013-11-1,83,66,40,22,19,16,41,19,9,0.00,40.00,10,3,17,0.00
2013-11-2,81,61,42,25,19,-100,43,22,9,0.00,40.00,10,3,16,0.00
2013-11-3,70,47,35,36,28,20,72,51,25,0.00,40.00,6,2,14,0.00
2013-11-4,62,42,31,29,23,17,73,51,17,0.00,40.00,6,2,19,0.00
2013-11-5,70,45,27,27,21,8,89,46,14,0.00,40.00,7,2,14,0.00
2013-11-6,72,57,35,13,8,1,28,15,8,0.00,40.00,16,7,26,0.00
2013-11-7,82,62,42,14,12,7,28,15,6,0.00,40.00,8,2,17,0.00
2013-11-8,83,60,35,12,7,0,32,15,4,0.00,40.00,7,2,14,0.00
2013-11-9,77,55,38,20,6,-100,28,16,3,0.00,40.00,13,3,22,0.00
2013-11-10,79,64,42,16,4,-6,34,11,5,0.00,40.00,11,4,21,0.00
2013-11-11,82,61,39,20,15,8,42,19,6,0.00,40.00,6,2,17,0.00
2013-11-12,75,59,44,22,20,16,36,23,12,0.00,40.00,6,1,16,0.00
2013-11-13,77,52,37,31,24,19,57,36,14,0.00,40.00,8,2,15,0.00
2013-11-14,85,54,35,30,27,17,69,42,8,0.00,40.00,8,2,18,0.00
2013-11-15,65,47,33,38,31,25,91,58,31,0.00,40.00,7,2,15,0.00
2013-11-16,66,42,29,42,30,-100,98,72,27,0.00,40.00,9,1,13,0.00
2013-11-17,68,46,31,36,32,29,98,64,26,0.00,40.00,5,1,15,0.00
2013-11-18,69,47,34,40,35,32,91,66,29,0.00,40.00,8,2,15,0.00
2013-11-19,65,45,32,40,35,32,100,73,32,0.00,40.00,5,1,15,0.00
2013-11-20,68,51,40,50,43,34,100,77,41,0.00,40.00,9,1,15,0.12
2013-11-21,54,47,41,50,46,37,100,96,71,0.00,40.00,9,1,18,0.49
2013-11-22,51,43,35,38,34,31,93,70,53,0.00,40.00,14,9,25,0.02
2013-11-23,53,44,39,34,31,-100,79,62,46,0.00,40.00,15,7,32,0.00
2013-11-24,63,44,32,35,32,29,95,66,32,0.00,40.00,6,2,15,0.00
2013-11-25,66,44,29,34,30,28,99,66,25,0.00,40.00,8,2,17,0.00
2013-11-26,68,51,33,30,26,21,83,43,18,0.00,40.00,10,2,21,0.00
2013-11-27,66,53,43,32,28,22,56,40,21,0.00,40.00,10,3,24,0.00
2013-11-28,60,51,41,34,31,27,62,47,28,0.00,40.00,8,4,23,0.00
2013-11-29,57,48,40,44,36,31,92,66,39,0.00,40.00,11,4,21,0.13
2013-11-30,67,45,32,36,32,-100,99,66,32,0.00,40.00,6,2,16,0.06
2013-12-1,71,46,31,35,30,22,95,61,18,0.00,40.00,5,1,12,0.00
2013-12-2,73,50,34,29,22,16,73,41,13,0.00,40.00,5,1,11,0.00
2013-12-3,68,47,33,42,33,22,91,60,32,0.00,40.00,10,3,20,0.00
2013-12-4,50,34,20,27,18,11,81,54,25,0.00,40.00,6,3,14,0.00
2013-12-5,49,27,14,19,13,8,94,62,23,0.00,40.00,6,1,13,0.00
2013-12-6,51,29,15,26,12,4,71,52,17,0.00,40.00,10,2,17,0.00
2013-12-7,39,30,20,38,24,-100,100,85,68,0.00,40.00,9,3,17,0.20
2013-12-8,42,27,18,29,22,17,98,83,53,0.00,40.00,4,0,10,0.01
2013-12-9,48,30,16,18,6,-13,96,54,7,0.00,40.00,22,6,32,0.00
2013-12-10,57,41,30,13,6,-6,36,24,8,0.00,40.00,12,5,23,0.00
2013-12-11,61,45,31,14,7,0,49,24,9,0.00,40.00,10,3,17,0.00
2013-12-12,68,48,31,15,9,4,52,23,8,0.00,40.00,7,3,12,0.00
2013-12-13,63,40,26,16,13,8,61,38,11,0.00,40.00,6,1,12,0.00
2013-12-14,66,45,28,16,9,-100,56,28,6,0.00,40.00,14,4,24,0.00
2013-12-15,73,57,41,17,10,5,28,17,8,0.00,40.00,16,8,29,0.00
2013-12-16,78,60,44,20,16,10,35,20,8,0.00,40.00,8,3,19,0.00
2013-12-17,79,62,48,24,20,13,31,21,8,0.00,40.00,10,2,16,0.00
2013-12-18,71,56,41,23,19,14,43,25,11,0.00,40.00,16,3,26,0.00
2013-12-19,45,39,33,37,32,20,93,77,42,0.00,40.00,7,2,14,0.00
2013-12-20,56,39,28,35,28,19,95,68,28,0.00,40.00,6,2,13,0.00
2013-12-21,63,42,27,32,26,-100,85,59,31,0.00,40.00,8,2,19,0.00
2013-12-22,67,46,30,29,26,23,88,54,21,0.00,40.00,10,2,17,0.00
2013-12-23,73,49,33,30,26,23,78,48,16,0.00,40.00,6,2,14,0.00
2013-12-24,74,48,31,28,24,10,80,47,14,0.00,40.00,6,2,13,0.00
2013-12-25,68,53,42,19,6,-6,36,19,5,0.00,40.00,17,8,33,0.00
2013-12-26,69,53,43,-1,-6,-16,14,9,3,0.00,40.00,12,5,24,0.00
2013-12-27,77,54,39,5,-2,-9,19,10,4,0.00,40.00,6,2,15,0.00
2013-12-28,72,46,33,8,3,-100,31,19,5,0.00,40.00,6,1,12,0.00
2013-12-29,75,49,32,6,0,-7,33,16,4,0.00,40.00,7,2,12,0.00
2013-12-30,76,49,32,8,4,-1,29,18,5,0.00,40.00,7,1,17,0.00
2013-12-31,75,49,32,8,1,-6,32,17,4,0.00,40.00,6,1,14,0.00
2014-1-1,76,51,32,12,5,-1,26,17,7,0.00,40.00,8,2,15,0.00
2014-1-2,78,53,39,17,13,8,37,23,7,0.00,40.00,6,1,14,0.00